Regional Weather Roundup
Issued by NWS

Home | Current Version | Previous Version | Text Only | Print | Product List | Glossary Off
Versions: 1 2 3 4 5 6 7 8 9 10 11 12 13 14 15 16 17 18 19 20 21 22 23 24 25 26 27 28 29 30 31 32 33 34 35 36 37 38 39 40 41 42 43 44 45 46 47 48 49 50

429
ASUS43 KFSD 261602
RWRSD

WEATHER ROUNDUP FOR SOUTH DAKOTA
NATIONAL WEATHER SERVICE SIOUX FALLS SD
1000 AM CST SUN FEB 26 2017

NOTE: "FAIR" INDICATES FEW OR NO CLOUDS BELOW 12,000 FEET WITH NO
SIGNIFICANT WEATHER AND/OR OBSTRUCTIONS TO VISIBILITY.


SDZ001>005-009-010-012>017-261700-
NORTHWEST AND NORTH CENTRAL SOUTH DAKOTA

CITY           SKY/WX    TMP DP  RH WIND       PRES   REMARKS
BUFFALO          N/A     30  18  60 W18       29.64S WCI  18
FAITH            N/A     30  19  63 W17       29.74R WCI  18
MOBRIDGE       SUNNY     20  14  77 SE7       29.76S WCI  11
$$

SDZ012>016-024>037-041>051-057-063-072>074-261700-
SOUTHWEST AND SOUTH CENTRAL SOUTH DAKOTA

CITY           SKY/WX    TMP DP  RH WIND       PRES   REMARKS
RAPID CTY ARPT SUNNY     28  15  58 S5        29.78R WCI  23
PIERRE         SUNNY     26  19  74 SW9       29.81R WCI  17
CUSTER         SUNNY     20   6  55 W13       29.69R WCI   7
ELLSWORTH AFB  SUNNY     28  17  62 SW7       29.76R WCI  21
PHILIP         SUNNY     30  19  63 SW14      29.81S WCI  19
PINE RIDGE     SUNNY     22   5  48 W9        29.84R WCI  12
SPEARFISH      FAIR      30   9  40 W20G31    29.73R WCI  18
WINNER         FAIR      30  15  53 SW10      29.83S WCI  21
$$

SDZ004>011-016>023-039-040-261700-
NORTHEAST SOUTH DAKOTA

CITY           SKY/WX    TMP DP  RH WIND       PRES   REMARKS
ABERDEEN       PTSUNNY   20  15  81 NE8       29.84R WCI  10
WATERTOWN      SUNNY     25  18  74 N9        29.79R WCI  15
BROOKINGS      SUNNY     29  23  78 NW10      29.80R WCI  20
SISSETON         N/A     19  14  81 N10       29.84R WCI   7
$$

SDZ017-020-022-023-036>040-048>070-261700-
SOUTHEAST SOUTH DAKOTA

CITY           SKY/WX    TMP DP  RH WIND       PRES   REMARKS
SIOUX FALLS    SUNNY     28  21  75 W9        29.84R WCI  19
HURON          MOSUNNY   28  23  81 N7        29.84R WCI  21
CHAMBERLAIN    SUNNY     31  21  68 W12       29.84R WCI  21
MITCHELL       SUNNY     31  23  72 NW8       29.86R WCI  23
YANKTON        SUNNY     25  16  68 SW9       29.89R WCI  15
$$

ABBREVIATIONS USED IN REMARKS
   TC - TEMPERATURE IN CELSIUS
  WCI - WIND CHILL INDEX
   HX - HEAT INDEX
  VSB - VISIBILITY





USA.gov is the U.S. government's official web portal to all federal, state and local government web resources and services.